QPF
0.00 0.00 0.00 0.01 0.01 0.01 0.02 0.03 0.03 0.03 0.03 0.02 0.02 0.04 0.08 0.11 0.10 0.09 0.10 0.12 0.12 0.11 0.09 0.09 0.09 0.09 0.08 0.06 0.05 0.04 0.05 0.06 0.05 0.02 0.01 0.01 0.01 0.01 0.01 0.00 0.00 0.00 0.00 0.00
0.02 0.00 0.00 0.01 0.01 0.01 0.02 0.02 0.02 0.03 0.03 0.03 0.03 0.03 0.06 0.10 0.11 0.11 0.11 0.13 0.14 0.12 0.11 0.11 0.09 0.08 0.07 0.05 0.04 0.03 0.02 0.03 0.04 0.03 0.01 0.00 0.00 0.00 0.00 0.00 0.00 0.00 0.00 0.00
0.04 0.01 0.02 0.04 0.02 0.02 0.02 0.01 0.02 0.03 0.02 0.03 0.04 0.04 0.06 0.10 0.14 0.12 0.12 0.12 0.12 0.11 0.10 0.09 0.07 0.06 0.05 0.03 0.02 0.01 0.01 0.01 0.01 0.01 0.01 0.00 0.00 0.00 0.00 0.00 0.00 0.00 0.00 0.00
0.04 0.04 0.04 0.03 0.01 0.01 0.02 0.02 0.01 0.01 0.02 0.03 0.05 0.07 0.09 0.12 0.15 0.17 0.14 0.11 0.10 0.10 0.06 0.06 0.06 0.04 0.03 0.02 0.01 0.01 0.01 0.01 0.01 0.01 0.00 0.00 0.00 0.00 0.00 0.00 0.00 0.00 0.00 0.00
0.04 0.04 0.03 0.01 0.01 0.01 0.03 0.03 0.02 0.02 0.01 0.02 0.04 0.08 0.15 0.15 0.13 0.14 0.13 0.10 0.08 0.07 0.04 0.03 0.03 0.02 0.01 0.01 0.01 0.01 0.01 0.02 0.01 0.01 0.01 0.00 0.01 0.01 0.01 0.01 0.01 0.01 0.00 0.01
0.03 0.03 0.03 0.02 0.01 0.01 0.02 0.03 0.01 0.01 0.01 0.01 0.02 0.04 0.08 0.11 0.11 0.10 0.10 0.08 0.07 0.04 0.03 0.04 0.02 0.02 0.02 0.01 0.01 0.01 0.01 0.02 0.01 0.01 0.01 0.01 0.01 0.01 0.01 0.01 0.01 0.01 0.01 0.01
0.03 0.02 0.02 0.01 0.00 0.01 0.03 0.03 0.01 0.01 0.01 0.03 0.05 0.05 0.03 0.05 0.08 0.09 0.08 0.07 0.06 0.04 0.02 0.03 0.02 0.02 0.02 0.02 0.02 0.02 0.01 0.01 0.01 0.01 0.01 0.01 0.01 0.01 0.01 0.01 0.01 0.01 0.01 0.01
0.01 0.01 0.01 0.00 0.01 0.02 0.02 0.01 0.00 0.01 0.01 0.02 0.04 0.05 0.04 0.05 0.07 0.07 0.06 0.06 0.05 0.03 0.03 0.03 0.02 0.02 0.02 0.03 0.03 0.03 0.01 0.01 0.01 0.01 0.00 0.00 0.01 0.01 0.01 0.01 0.01 0.01 0.01 0.01
0.01 0.01 0.01 0.00 0.00 0.01 0.00 0.00 0.01 0.02 0.02 0.03 0.04 0.05 0.05 0.05 0.06 0.05 0.04 0.05 0.05 0.05 0.04 0.03 0.03 0.03 0.03 0.03 0.03 0.01 0.01 0.01 0.01 0.01 0.01 0.01 0.01 0.01 0.01 0.01 0.01 0.00 0.01 0.01
0.00 0.00 0.00 0.00 0.00 0.00 0.01 0.01 0.01 0.02 0.03 0.03 0.04 0.04 0.05 0.06 0.05 0.04 0.04 0.04 0.05 0.05 0.05 0.04 0.03 0.03 0.04 0.03 0.02 0.01 0.01 0.01 0.01 0.01 0.01 0.01 0.00 0.00 0.00 0.00 0.00 0.00 0.00 0.00
0.01 0.01 0.01 0.00 0.00 0.00 0.00 0.01 0.02 0.02 0.03 0.04 0.04 0.03 0.04 0.06 0.06 0.05 0.05 0.04 0.04 0.06 0.07 0.05 0.03 0.03 0.03 0.03 0.02 0.02 0.02 0.02 0.02 0.02 0.01 0.00 0.00 0.00 0.00 0.00 0.00 0.00 0.00 0.00
0.00 0.00 0.00 0.00 0.00 0.00 0.01 0.02 0.03 0.03 0.03 0.03 0.02 0.02 0.01 0.02 0.03 0.03 0.03 0.03 0.04 0.05 0.04 0.03 0.03 0.03 0.02 0.01 0.01 0.02 0.02 0.02 0.01 0.01 0.01 0.00 0.00 0.00 0.00 0.00 0.00 0.00 0.00 0.00
0.00 0.00 0.00 0.00 0.01 0.01 0.02 0.02 0.02 0.02 0.01 0.01 0.01 0.01 0.01 0.01 0.01 0.02 0.02 0.02 0.04 0.04 0.03 0.02 0.02 0.02 0.01 0.01 0.01 0.01 0.01 0.01 0.01 0.01 0.01 0.00 0.00 0.01 0.01 0.00 0.00 0.00 0.00 0.00
0.00 0.00 0.00 0.01 0.01 0.01 0.01 0.01 0.01 0.01 0.00 0.00 0.00 0.00 0.01 0.01 0.01 0.01 0.02 0.02 0.02 0.02 0.02 0.02 0.02 0.01 0.01 0.01 0.01 0.01 0.01 0.00 0.01 0.01 0.01 0.00 0.00 0.00 0.01 0.01 0.02 0.01 0.00 0.00
0.00 0.00 0.00 0.00 0.00 0.00 0.00 0.00 0.00 0.00 0.00 0.00 0.00 0.00 0.00 0.01 0.01 0.01 0.01 0.01 0.01 0.01 0.02 0.02 0.01 0.01 0.01 0.01 0.01 0.00 0.00 0.00 0.01 0.01 0.00 0.00 0.00 0.00 0.00 0.00 0.01 0.01 0.01 0.00
0.00 0.00 0.00 0.00 0.00 0.00 0.00 0.00 0.00 0.00 0.00 0.00 0.00 0.00 0.01 0.01 0.01 0.01 0.01 0.01 0.01 0.01 0.01 0.01 0.00 0.00 0.00 0.00 0.01 0.00 0.00 0.00 0.00 0.01 0.00 0.00 0.00 0.00 0.00 0.00 0.01 0.01 0.01 0.01
0.00 0.00 0.00 0.00 0.00 0.00 0.00 0.00 0.00 0.00 0.00 0.00 0.00 0.00 0.00 0.00 0.01 0.01 0.01 0.01 0.01 0.01 0.00 0.00 0.00 0.00 0.00 0.00 0.00 0.00 0.00 0.00 0.00 0.00 0.00 0.00 0.00 0.00 0.00 0.00 0.00 0.00 0.00 0.00
0.00 0.00 0.00 0.00 0.00 0.00 0.00 0.00 0.00 0.00 0.00 0.00 0.00 0.00 0.00 0.00 0.00 0.00 0.00 0.00 0.00 0.00 0.00 0.00 0.00 0.00 0.00 0.00 0.00 0.00 0.00 0.00 0.00 0.00 0.00 0.00 0.00 0.00 0.00 0.00 0.00 0.00 0.00 0.00
0.00 0.00 0.00 0.00 0.00 0.00 0.00 0.00 0.00 0.00 0.00 0.00 0.00 0.00 0.00 0.00 0.00 0.00 0.00 0.00 0.00 0.00 0.00 0.00 0.00 0.00 0.00 0.00 0.00 0.00 0.00 0.00 0.00 0.00 0.00 0.00 0.00 0.00 0.00 0.00 0.00 0.00 0.00 0.00
0.00 0.00 0.00 0.00 0.00 0.00 0.00 0.00 0.00 0.00 0.00 0.00 0.00 0.00 0.00 0.00 0.00 0.00 0.00 0.00 0.00 0.00 0.00 0.00 0.00 0.00 0.00 0.00 0.00 0.00 0.00 0.00 0.00 0.00 0.00 0.00 0.00 0.00 0.00 0.00 0.00 0.00 0.00 0.00
0.00 0.00 0.00 0.00 0.00 0.00 0.00 0.00 0.00 0.00 0.00 0.00 0.00 0.00 0.00 0.00 0.00 0.00 0.00 0.00 0.00 0.00 0.00 0.00 0.00 0.00 0.00 0.00 0.00 0.00 0.00 0.00 0.00 0.00 0.00 0.00 0.00 0.00 0.00 0.00 0.00 0.00 0.00 0.00
0.00 0.00 0.00 0.00 0.00 0.00 0.00 0.00 0.00 0.00 0.00 0.00 0.00 0.00 0.00 0.00 0.00 0.00 0.00 0.00 0.00 0.00 0.00 0.00 0.00 0.00 0.00 0.00 0.00 0.00 0.00 0.00 0.00 0.00 0.00 0.00 0.00 0.00 0.00 0.00 0.00 0.00 0.00 0.00
0.00 0.00 0.00 0.00 0.00 0.00 0.00 0.00 0.00 0.00 0.00 0.00 0.00 0.00 0.00 0.00 0.00 0.00 0.00 0.00 0.00 0.00 0.00 0.00 0.00 0.00 0.00 0.00 0.00 0.00 0.00 0.00 0.00 0.00 0.00 0.00 0.00 0.00 0.00 0.00 0.00 0.00 0.00 0.00
0.00 0.00 0.00 0.00 0.00 0.00 0.00 0.00 0.00 0.00 0.00 0.00 0.00 0.00 0.00 0.00 0.00 0.00 0.00 0.00 0.00 0.00 0.00 0.00 0.00 0.00 0.00 0.00 0.00 0.00 0.00 0.00 0.00 0.00 0.00 0.00 0.00 0.00 0.00 0.00 0.00 0.00 0.00 0.00
0.00 0.00 0.00 0.00 0.00 0.00 0.00 0.00 0.00 0.00 0.00 0.00 0.00 0.00 0.00 0.00 0.00 0.00 0.00 0.00 0.00 0.00 0.00 0.00 0.00 0.00 0.00 0.00 0.00 0.00 0.00 0.00 0.00 0.00 0.00 0.00 0.00 0.00 0.00 0.00 0.00 0.00 0.00 0.00
0.00 0.00 0.00 0.00 0.00 0.00 0.00 0.00 0.00 0.00 0.00 0.00 0.00 0.00 0.00 0.00 0.00 0.00 0.00 0.00 0.00 0.00 0.00 0.00 0.00 0.00 0.00 0.00 0.00 0.00 0.00 0.00 0.00 0.00 0.00 0.00 0.00 0.00 0.00 0.00 0.00 0.00 0.00 0.00
0.00 0.00 0.00 0.00 0.00 0.00 0.00 0.00 0.00 0.00 0.00 0.00 0.00 0.00 0.00 0.00 0.00 0.00 0.00 0.00 0.00 0.00 0.00 0.00 0.00 0.00 0.00 0.00 0.00 0.00 0.00 0.00 0.00 0.00 0.00 0.00 0.00 0.00 0.00 0.00 0.00 0.00 0.00 0.00
MSLP
1009.82 1009.88 1009.88 1009.84 1009.78 1009.73 1009.70 1009.74 1009.87 1010.11 1010.46 1010.94 1011.54 1012.23 1013.00 1013.82 1014.64 1015.44 1016.20 1016.89 1017.50 1018.04 1018.51 1018.92 1019.30 1019.66 1020.01 1020.36 1020.72 1021.10 1021.49 1021.88 1022.28 1022.67 1023.06 1023.44 1023.81 1024.16 1024.47 1024.76 1024.99 1025.18 1025.32 1025.40
1009.81 1009.87 1009.85 1009.78 1009.69 1009.62 1009.61 1009.69 1009.89 1010.23 1010.71 1011.32 1012.04 1012.82 1013.65 1014.49 1015.29 1016.05 1016.75 1017.39 1017.96 1018.47 1018.95 1019.40 1019.82 1020.24 1020.65 1021.04 1021.42 1021.79 1022.14 1022.47 1022.80 1023.12 1023.45 1023.79 1024.13 1024.48 1024.82 1025.15 1025.44 1025.68 1025.86 1025.98
1009.72 1009.81 1009.80 1009.73 1009.63 1009.55 1009.55 1009.68 1009.95 1010.38 1010.97 1011.69 1012.52 1013.40 1014.29 1015.15 1015.96 1016.69 1017.34 1017.92 1018.43 1018.91 1019.36 1019.80 1020.23 1020.67 1021.09 1021.50 1021.87 1022.22 1022.53 1022.82 1023.09 1023.35 1023.63 1023.93 1024.27 1024.62 1025.00 1025.36 1025.71 1026.01 1026.24 1026.39
1009.55 1009.69 1009.72 1009.67 1009.59 1009.53 1009.56 1009.72 1010.05 1010.55 1011.23 1012.05 1012.97 1013.93 1014.89 1015.79 1016.60 1017.31 1017.93 1018.45 1018.91 1019.33 1019.74 1020.14 1020.55 1020.97 1021.38 1021.78 1022.14 1022.46 1022.74 1022.98 1023.21 1023.43 1023.67 1023.95 1024.27 1024.63 1025.02 1025.42 1025.80 1026.14 1026.41 1026.60
1009.30 1009.50 1009.59 1009.60 1009.56 1009.55 1009.62 1009.82 1010.20 1010.76 1011.51 1012.40 1013.39 1014.42 1015.42 1016.36 1017.19 1017.89 1018.48 1018.96 1019.37 1019.74 1020.09 1020.44 1020.81 1021.20 1021.58 1021.95 1022.29 1022.59 1022.84 1023.06 1023.25 1023.44 1023.66 1023.91 1024.21 1024.56 1024.95 1025.36 1025.76 1026.13 1026.42 1026.64
1008.98 1009.25 1009.42 1009.51 1009.55 1009.61 1009.73 1009.99 1010.42 1011.03 1011.82 1012.75 1013.79 1014.85 1015.90 1016.85 1017.70 1018.40 1018.97 1019.42 1019.79 1020.11 1020.41 1020.71 1021.04 1021.39 1021.74 1022.09 1022.41 1022.69 1022.93 1023.14 1023.31 1023.48 1023.67 1023.90 1024.18 1024.51 1024.88 1025.28 1025.67 1026.04 1026.35 1026.58
1008.61 1008.96 1009.23 1009.42 1009.56 1009.71 1009.91 1010.23 1010.70 1011.35 1012.16 1013.12 1014.17 1015.25 1016.30 1017.27 1018.12 1018.82 1019.38 1019.81 1020.15 1020.43 1020.69 1020.96 1021.25 1021.57 1021.90 1022.23 1022.55 1022.83 1023.07 1023.27 1023.45 1023.61 1023.78 1023.99 1024.24 1024.54 1024.88 1025.24 1025.62 1025.97 1026.27 1026.51
1008.24 1008.67 1009.04 1009.34 1009.61 1009.86 1010.15 1010.54 1011.06 1011.73 1012.55 1013.50 1014.54 1015.61 1016.65 1017.60 1018.44 1019.13 1019.68 1020.10 1020.42 1020.69 1020.93 1021.17 1021.45 1021.75 1022.07 1022.41 1022.73 1023.02 1023.28 1023.49 1023.68 1023.84 1024.01 1024.19 1024.42 1024.68 1024.98 1025.31 1025.65 1025.98 1026.27 1026.51
1007.91 1008.41 1008.88 1009.31 1009.70 1010.07 1010.47 1010.93 1011.49 1012.18 1012.99 1013.91 1014.91 1015.94 1016.94 1017.86 1018.67 1019.34 1019.88 1020.29 1020.60 1020.86 1021.10 1021.35 1021.62 1021.92 1022.26 1022.61 1022.95 1023.27 1023.55 1023.79 1023.99 1024.17 1024.33 1024.51 1024.70 1024.94 1025.20 1025.50 1025.81 1026.11 1026.39 1026.63
1007.65 1008.22 1008.80 1009.35 1009.87 1010.36 1010.86 1011.39 1011.99 1012.68 1013.47 1014.35 1015.29 1016.25 1017.18 1018.05 1018.81 1019.45 1019.97 1020.38 1020.69 1020.96 1021.21 1021.47 1021.76 1022.08 1022.44 1022.81 1023.18 1023.54 1023.85 1024.12 1024.35 1024.54 1024.71 1024.87 1025.06 1025.26 1025.50 1025.77 1026.05 1026.34 1026.61 1026.85
1007.48 1008.13 1008.81 1009.48 1010.12 1010.73 1011.32 1011.91 1012.54 1013.23 1013.98 1014.80 1015.66 1016.53 1017.38 1018.18 1018.88 1019.49 1019.98 1020.38 1020.70 1020.99 1021.26 1021.54 1021.86 1022.21 1022.59 1023.00 1023.40 1023.79 1024.13 1024.43 1024.67 1024.88 1025.06 1025.22 1025.39 1025.59 1025.81 1026.06 1026.33 1026.60 1026.87 1027.10
1007.41 1008.14 1008.93 1009.71 1010.46 1011.16 1011.83 1012.47 1013.12 1013.79 1014.50 1015.25 1016.03 1016.81 1017.57 1018.28 1018.92 1019.48 1019.95 1020.34 1020.67 1020.97 1021.26 1021.57 1021.92 1022.30 1022.71 1023.14 1023.57 1023.97 1024.34 1024.65 1024.91 1025.13 1025.31 1025.47 1025.64 1025.83 1026.04 1026.29 1026.55 1026.82 1027.09 1027.32
1007.43 1008.25 1009.12 1010.00 1010.84 1011.63 1012.36 1013.04 1013.70 1014.35 1015.01 1015.69 1016.38 1017.08 1017.75 1018.39 1018.96 1019.47 1019.91 1020.29 1020.63 1020.94 1021.26 1021.59 1021.96 1022.36 1022.79 1023.23 1023.67 1024.08 1024.45 1024.76 1025.02 1025.24 1025.42 1025.58 1025.74 1025.93 1026.14 1026.39 1026.66 1026.93 1027.20 1027.44
1007.51 1008.42 1009.38 1010.34 1011.25 1012.09 1012.87 1013.57 1014.23 1014.86 1015.48 1016.10 1016.73 1017.34 1017.94 1018.51 1019.04 1019.51 1019.92 1020.29 1020.63 1020.95 1021.27 1021.62 1021.99 1022.40 1022.83 1023.26 1023.69 1024.09 1024.44 1024.74 1024.99 1025.20 1025.37 1025.53 1025.69 1025.87 1026.09 1026.34 1026.61 1026.90 1027.17 1027.41
1007.63 1008.62 1009.65 1010.67 1011.64 1012.52 1013.32 1014.03 1014.69 1015.30 1015.89 1016.47 1017.04 1017.61 1018.16 1018.68 1019.17 1019.61 1020.01 1020.36 1020.70 1021.02 1021.34 1021.68 1022.05 1022.44 1022.84 1023.25 1023.65 1024.01 1024.34 1024.61 1024.84 1025.02 1025.18 1025.33 1025.49 1025.68 1025.90 1026.16 1026.44 1026.73 1027.01 1027.24
1007.77 1008.83 1009.92 1010.97 1011.96 1012.86 1013.67 1014.39 1015.04 1015.64 1016.21 1016.77 1017.31 1017.85 1018.38 1018.88 1019.35 1019.78 1020.17 1020.52 1020.85 1021.16 1021.47 1021.79 1022.13 1022.48 1022.85 1023.21 1023.56 1023.88 1024.16 1024.40 1024.60 1024.76 1024.90 1025.05 1025.21 1025.39 1025.62 1025.88 1026.17 1026.47 1026.75 1026.99
1007.90 1009.02 1010.14 1011.22 1012.21 1013.11 1013.91 1014.62 1015.26 1015.86 1016.43 1016.99 1017.54 1018.08 1018.61 1019.12 1019.59 1020.02 1020.41 1020.76 1021.08 1021.37 1021.66 1021.95 1022.24 1022.55 1022.86 1023.16 1023.46 1023.72 1023.96 1024.15 1024.32 1024.46 1024.59 1024.73 1024.89 1025.09 1025.32 1025.58 1025.88 1026.18 1026.46 1026.70
1008.05 1009.20 1010.34 1011.41 1012.38 1013.26 1014.04 1014.74 1015.37 1015.97 1016.55 1017.12 1017.69 1018.26 1018.82 1019.35 1019.84 1020.29 1020.69 1021.04 1021.35 1021.62 1021.88 1022.13 1022.37 1022.62 1022.87 1023.11 1023.34 1023.56 1023.75 1023.91 1024.05 1024.18 1024.30 1024.44 1024.61 1024.81 1025.05 1025.32 1025.61 1025.91 1026.20 1026.44
1008.20 1009.37 1010.50 1011.54 1012.49 1013.33 1014.08 1014.75 1015.38 1015.98 1016.57 1017.17 1017.78 1018.38 1018.98 1019.55 1020.08 1020.55 1020.97 1021.32 1021.62 1021.88 1022.10 1022.30 1022.50 1022.69 1022.88 1023.06 1023.24 1023.41 1023.56 1023.70 1023.83 1023.95 1024.08 1024.22 1024.40 1024.60 1024.85 1025.12 1025.41 1025.71 1025.99 1026.23
1008.38 1009.55 1010.65 1011.65 1012.55 1013.34 1014.05 1014.70 1015.31 1015.91 1016.52 1017.14 1017.79 1018.43 1019.07 1019.68 1020.25 1020.75 1021.18 1021.54 1021.84 1022.08 1022.27 1022.44 1022.59 1022.73 1022.87 1023.01 1023.15 1023.29 1023.42 1023.54 1023.66 1023.79 1023.92 1024.08 1024.26 1024.48 1024.72 1024.99 1025.28 1025.56 1025.83 1026.07
1008.58 1009.73 1010.79 1011.75 1012.59 1013.33 1013.99 1014.61 1015.20 1015.79 1016.41 1017.06 1017.73 1018.41 1019.08 1019.73 1020.32 1020.85 1021.30 1021.67 1021.97 1022.20 1022.37 1022.51 1022.63 1022.74 1022.85 1022.95 1023.07 1023.18 1023.30 1023.42 1023.55 1023.68 1023.83 1024.00 1024.19 1024.40 1024.64 1024.91 1025.18 1025.45 1025.70 1025.92
1008.77 1009.90 1010.93 1011.83 1012.62 1013.30 1013.92 1014.49 1015.06 1015.65 1016.26 1016.92 1017.61 1018.31 1019.00 1019.67 1020.29 1020.84 1021.30 1021.68 1021.98 1022.20 1022.37 1022.50 1022.60 1022.69 1022.78 1022.88 1022.98 1023.09 1023.21 1023.34 1023.47 1023.61 1023.77 1023.94 1024.14 1024.35 1024.58 1024.82 1025.07 1025.31 1025.54 1025.75
1008.94 1010.04 1011.03 1011.88 1012.62 1013.26 1013.83 1014.37 1014.91 1015.48 1016.09 1016.74 1017.43 1018.14 1018.84 1019.52 1020.14 1020.70 1021.17 1021.55 1021.86 1022.09 1022.26 1022.39 1022.49 1022.58 1022.67 1022.77 1022.88 1022.99 1023.12 1023.25 1023.40 1023.55 1023.71 1023.88 1024.07 1024.27 1024.48 1024.69 1024.92 1025.13 1025.33 1025.51
1009.04 1010.11 1011.05 1011.86 1012.56 1013.16 1013.70 1014.22 1014.74 1015.29 1015.89 1016.53 1017.21 1017.90 1018.60 1019.27 1019.89 1020.44 1020.91 1021.30 1021.61 1021.85 1022.03 1022.17 1022.29 1022.40 1022.51 1022.62 1022.74 1022.87 1023.00 1023.15 1023.29 1023.45 1023.61 1023.77 1023.94 1024.12 1024.31 1024.50 1024.69 1024.87 1025.04 1025.20
1009.02 1010.05 1010.96 1011.74 1012.41 1012.99 1013.51 1014.01 1014.53 1015.07 1015.65 1016.27 1016.93 1017.61 1018.28 1018.93 1019.53 1020.07 1020.54 1020.93 1021.25 1021.50 1021.70 1021.87 1022.01 1022.14 1022.27 1022.41 1022.55 1022.69 1022.84 1022.99 1023.14 1023.28 1023.43 1023.58 1023.74 1023.89 1024.05 1024.21 1024.38 1024.53 1024.68 1024.82
1008.85 1009.84 1010.71 1011.47 1012.12 1012.69 1013.22 1013.73 1014.24 1014.78 1015.35 1015.97 1016.61 1017.26 1017.90 1018.52 1019.10 1019.62 1020.07 1020.46 1020.78 1021.05 1021.27 1021.47 1021.64 1021.80 1021.96 1022.12 1022.28 1022.44 1022.60 1022.75 1022.89 1023.03 1023.17 1023.30 1023.43 1023.57 1023.70 1023.84 1023.99 1024.13 1024.26 1024.39
1008.49 1009.44 1010.28 1011.02 1011.67 1012.26 1012.80 1013.33 1013.86 1014.41 1014.99 1015.60 1016.22 1016.85 1017.46 1018.05 1018.60 1019.09 1019.53 1019.91 1020.23 1020.51 1020.76 1020.97 1021.18 1021.37 1021.56 1021.74 1021.92 1022.09 1022.26 1022.41 1022.55 1022.68 1022.80 1022.91 1023.03 1023.15 1023.27 1023.40 1023.53 1023.67 1023.81 1023.94
Thickness
5664 5664 5662 5660 5660 5661 5657 5655 5650 5649 5644 5634 5625 5615 5605 5597 5590 5584 5579 5576 5572 5569 5567 5565 5564 5564 5563 5563 5562 5562 5562 5561 5559 5557 5555 5554 5553 5552 5552 5551 5551 5550 5549 5548
5658 5664 5663 5658 5659 5657 5655 5654 5651 5645 5635 5634 5623 5610 5599 5591 5585 5579 5573 5569 5564 5561 5558 5556 5555 5554 5553 5552 5552 5552 5552 5551 5549 5548 5547 5545 5544 5543 5542 5541 5540 5539 5538 5537
5653 5663 5659 5650 5658 5655 5652 5652 5647 5639 5633 5624 5611 5602 5595 5587 5581 5574 5568 5562 5557 5554 5551 5549 5547 5545 5544 5544 5545 5544 5544 5543 5542 5540 5539 5538 5537 5535 5533 5531 5530 5528 5527 5526
5655 5653 5639 5655 5665 5660 5651 5645 5645 5639 5629 5620 5608 5598 5590 5583 5576 5568 5561 5556 5551 5548 5545 5542 5540 5540 5540 5539 5539 5538 5537 5536 5534 5533 5531 5529 5527 5525 5524 5522 5521 5519 5517 5516
5653 5651 5654 5655 5657 5655 5647 5638 5639 5631 5619 5609 5599 5588 5578 5574 5570 5563 5557 5551 5546 5543 5540 5537 5536 5535 5534 5533 5532 5531 5529 5528 5527 5525 5523 5521 5520 5518 5516 5514 5513 5511 5509 5507
5655 5646 5645 5653 5659 5659 5649 5633 5634 5627 5614 5604 5598 5590 5576 5568 5563 5556 5550 5545 5541 5538 5535 5532 5531 5530 5529 5528 5526 5525 5523 5520 5518 5517 5515 5514 5512 5511 5509 5507 5506 5504 5501 5499
5655 5651 5657 5656 5656 5652 5637 5635 5633 5625 5615 5607 5602 5598 5580 5566 5558 5550 5544 5540 5536 5534 5531 5528 5525 5524 5523 5521 5519 5517 5515 5513 5511 5509 5508 5506 5504 5503 5502 5501 5498 5496 5494 5492
5656 5650 5649 5651 5650 5644 5638 5638 5632 5622 5613 5604 5594 5584 5572 5562 5552 5545 5539 5535 5532 5530 5526 5523 5521 5519 5517 5514 5511 5509 5507 5506 5504 5503 5503 5500 5498 5496 5495 5493 5492 5490 5488 5487
5660 5651 5645 5646 5644 5641 5641 5634 5626 5617 5608 5597 5585 5576 5566 5557 5549 5542 5537 5532 5528 5525 5521 5518 5515 5514 5510 5506 5504 5502 5500 5498 5497 5495 5494 5493 5492 5490 5489 5488 5490 5489 5487 5485
5654 5646 5642 5641 5641 5640 5637 5629 5622 5613 5602 5592 5581 5570 5561 5552 5545 5538 5533 5528 5524 5520 5516 5512 5509 5507 5504 5501 5498 5496 5494 5492 5490 5489 5488 5486 5486 5486 5485 5485 5484 5483 5482 5480
5652 5643 5639 5636 5636 5633 5628 5623 5614 5605 5596 5587 5577 5567 5558 5550 5542 5536 5530 5525 5521 5516 5512 5507 5504 5501 5498 5495 5493 5491 5489 5488 5486 5485 5483 5481 5479 5475 5476 5471 5469 5472 5473 5473
5661 5652 5647 5634 5631 5629 5622 5615 5607 5599 5589 5581 5574 5564 5556 5548 5541 5534 5528 5523 5518 5513 5508 5504 5500 5496 5493 5491 5489 5486 5485 5483 5483 5481 5479 5478 5475 5471 5462 5462 5459 5458 5457 5457
5663 5658 5648 5636 5630 5625 5618 5610 5602 5595 5586 5578 5570 5563 5554 5546 5539 5533 5527 5522 5516 5511 5506 5501 5497 5492 5490 5487 5485 5483 5482 5480 5480 5478 5477 5476 5475 5473 5468 5459 5455 5453 5453 5452
5657 5650 5638 5631 5626 5620 5614 5606 5599 5590 5582 5575 5567 5560 5553 5545 5538 5532 5526 5521 5516 5511 5505 5499 5494 5490 5487 5484 5482 5480 5480 5476 5476 5476 5475 5474 5473 5473 5471 5468 5464 5460 5454 5451
5654 5650 5640 5631 5623 5616 5609 5603 5594 5586 5579 5572 5565 5559 5552 5545 5538 5531 5525 5520 5514 5509 5504 5499 5494 5489 5485 5483 5481 5480 5480 5479 5477 5477 5476 5475 5474 5473 5471 5469 5468 5465 5462 5456
5652 5645 5636 5628 5620 5614 5608 5602 5594 5586 5579 5573 5566 5559 5552 5545 5538 5531 5525 5519 5514 5509 5505 5500 5495 5490 5487 5484 5481 5480 5479 5473 5474 5477 5477 5475 5474 5473 5471 5469 5468 5467 5465 5464
5650 5641 5635 5628 5621 5616 5610 5604 5597 5589 5581 5574 5567 5561 5553 5546 5538 5531 5525 5521 5516 5511 5506 5501 5497 5493 5490 5486 5484 5484 5482 5477 5471 5477 5477 5476 5475 5474 5472 5471 5470 5468 5467 5461
5658 5650 5643 5635 5628 5620 5613 5606 5598 5591 5584 5577 5569 5562 5555 5548 5541 5534 5528 5523 5517 5512 5508 5503 5500 5497 5493 5490 5488 5488 5486 5484 5482 5481 5479 5478 5476 5475 5474 5473 5471 5470 5469 5465
5657 5649 5642 5635 5629 5622 5615 5608 5600 5593 5585 5578 5571 5563 5557 5550 5543 5537 5531 5525 5520 5514 5510 5506 5499 5499 5496 5493 5490 5490 5490 5488 5486 5484 5482 5475 5478 5478 5477 5476 5474 5473 5472 5471
5655 5649 5642 5635 5629 5623 5616 5609 5602 5594 5587 5580 5573 5566 5559 5553 5546 5540 5534 5530 5526 5523 5515 5510 5505 5504 5500 5497 5492 5498 5496 5493 5491 5488 5486 5484 5483 5480 5480 5479 5477 5476 5475 5474
5654 5648 5642 5637 5630 5624 5618 5611 5603 5596 5589 5583 5576 5569 5562 5556 5550 5544 5539 5535 5529 5525 5519 5511 5512 5510 5506 5503 5496 5504 5502 5499 5496 5493 5491 5489 5487 5485 5484 5482 5480 5479 5478 5477
5654 5649 5644 5638 5631 5625 5618 5612 5606 5599 5592 5585 5579 5573 5566 5559 5554 5549 5546 5543 5535 5527 5525 5522 5520 5515 5512 5506 5510 5510 5508 5504 5501 5499 5496 5494 5491 5490 5488 5486 5485 5483 5482 5480
5655 5650 5645 5639 5633 5626 5619 5614 5608 5602 5595 5589 5584 5577 5571 5566 5562 5556 5551 5546 5541 5531 5532 5531 5524 5516 5513 5512 5516 5516 5513 5509 5507 5504 5501 5499 5497 5494 5493 5491 5489 5488 5486 5484
5655 5650 5645 5640 5634 5627 5621 5616 5611 5605 5599 5593 5588 5582 5576 5571 5567 5564 5560 5549 5544 5537 5538 5533 5524 5520 5514 5521 5522 5520 5518 5514 5512 5510 5508 5506 5504 5501 5499 5496 5494 5492 5490 5487
5655 5651 5646 5641 5635 5630 5624 5619 5613 5607 5602 5598 5592 5586 5582 5578 5574 5570 5565 5557 5548 5541 5543 5535 5528 5523 5523 5528 5527 5526 5524 5521 5520 5517 5514 5511 5509 5507 5505 5502 5499 5497 5495 5493
5655 5651 5647 5643 5641 5636 5631 5625 5619 5614 5609 5604 5598 5593 5588 5583 5579 5574 5567 5563 5556 5548 5550 5545 5537 5530 5533 5534 5533 5531 5528 5524 5520 5518 5518 5516 5514 5512 5509 5507 5503 5502 5500 5497
5653 5651 5646 5645 5642 5640 5636 5631 5626 5620 5616 5611 5605 5599 5594 5589 5584 5580 5574 5570 5564 5558 5557 5554 5550 5545 5543 5541 5539 5536 5533 5530 5527 5525 5523 5520 5518 5516 5514 5510 5508 5506 5503 5502